Chipley, FL

8:11 AM CDT on October 20, 2017 (GMT -0500)
Chipley

Weather History for KVSH - September, 2013

Change the Weather History Date:

Monday, September 23, 2013

  Actual Average (KDHN) Record (KDHN)
Temperature  
Mean Temperature 79 °F -  
Max Temperature 87 °F 84 °F 97 °F (2016)
Min Temperature 71 °F 62 °F 53 °F (1938)
Cooling Degree Days 14    
Growing Degree Days 29 (Base 50)    
Moisture  
Dew Point 69 °F    
Average Humidity 69    
Maximum Humidity 84    
Minimum Humidity 57    
Precipitation  
Precipitation 0.00 in - - ()
Sea Level Pressure  
Sea Level Pressure 29.82 in    
Wind  
Wind Speed 6 mph (East)    
Max Wind Speed 9 mph    
Max Gust Speed -    
Visibility 10 miles    
Events      
Averages and records for this station are not official NWS values.
T = Trace of Precipitation, MM = Missing Value Source: NWS Daily Summary

Daily Weather History Graph

Daily Weather History Graph

Search for Another Location

Airport or City:

Trip Planner

Search our weather history database for the weather conditions in past years. The results will help you decide how hot, cold, wet, or windy it might be!

Date:

Astronomy

Sep. 23, 2013 Rise Set
Actual Time 6:31 AM CDT 6:37 PM CDT
Civil Twilight 6:07 AM CDT 7:01 PM CDT
Nautical Twilight 5:39 AM CDT 7:29 PM CDT
Astronomical Twilight 5:10 AM CDT 7:57 PM CDT
Moon 9:28 PM CDT (9/23) 10:31 AM CDT (9/23)
Length of Visible Light 12h 54m
Length of Day
12h 05m
Waning Gibbous, 81% of the Moon is Illuminated
Sep 23
Waning Gibbous
Sep 26
Last Quarter
Oct 4
New
Oct 11
First Quarter
Oct 18
Full

Hourly Weather History & Observations

Time (CDT) Temp. Heat Index Dew Point Humidity Pressure Visibility Wind Dir Wind Speed Gust Speed Precip Events Conditions
12:15 AM 75.2 °F - 59.0 °F 57% 29.81 in 10.0 mi NE 6.9 mph - N/A   Clear
12:35 AM 75.2 °F - 60.8 °F 61% 29.81 in 10.0 mi NNE 6.9 mph - N/A   Clear
12:55 AM 73.4 °F - 60.8 °F 65% 29.81 in 10.0 mi NNE 3.5 mph - N/A   Scattered Clouds
1:15 AM 73.4 °F - 60.8 °F 65% 29.81 in 10.0 mi NE 5.8 mph - N/A   Overcast
1:35 AM 75.2 °F - 60.8 °F 61% 29.81 in 10.0 mi ENE 8.1 mph - N/A   Overcast
1:55 AM 75.2 °F - 60.8 °F 61% 29.81 in 10.0 mi NE 6.9 mph - N/A   Overcast
2:15 AM 73.4 °F - 60.8 °F 65% 29.81 in 10.0 mi NE 5.8 mph - N/A   Overcast
2:35 AM 73.4 °F - 60.8 °F 65% 29.80 in 10.0 mi NNE 4.6 mph - N/A   Overcast
2:55 AM 73.4 °F - 60.8 °F 65% 29.80 in 10.0 mi NNE 4.6 mph - N/A   Partly Cloudy
3:15 AM 73.4 °F - 60.8 °F 65% 29.80 in 10.0 mi ENE 6.9 mph - N/A   Clear
3:35 AM 73.4 °F - 60.8 °F 65% 29.80 in 10.0 mi NE 6.9 mph - N/A   Clear
3:55 AM 73.4 °F - 60.8 °F 65% 29.80 in 10.0 mi NE 6.9 mph - N/A   Clear
4:15 AM 73.4 °F - 60.8 °F 65% 29.79 in 10.0 mi NE 6.9 mph - N/A   Clear
4:35 AM 73.4 °F - 60.8 °F 65% 29.79 in 10.0 mi NE 5.8 mph - N/A   Clear
4:55 AM 73.4 °F - 60.8 °F 65% 29.79 in 10.0 mi NNE 6.9 mph - N/A   Clear
5:15 AM 73.4 °F - 60.8 °F 65% 29.80 in 10.0 mi NE 9.2 mph - N/A   Clear
5:35 AM 71.6 °F - 60.8 °F 69% 29.81 in 10.0 mi NE 5.8 mph - N/A   Clear
5:55 AM 71.6 °F - 60.8 °F 69% 29.81 in 10.0 mi NNE 8.1 mph - N/A   Clear
6:15 AM 71.6 °F - 60.8 °F 69% 29.81 in 10.0 mi NE 9.2 mph - N/A   Clear
6:35 AM 71.6 °F - 60.8 °F 69% 29.82 in 10.0 mi NNE 5.8 mph - N/A   Clear
6:55 AM 71.6 °F - 60.8 °F 69% 29.82 in 10.0 mi NE 8.1 mph - N/A   Clear
7:15 AM 71.6 °F - 60.8 °F 69% 29.83 in 10.0 mi NE 9.2 mph - N/A   Clear
7:35 AM 71.6 °F - 62.6 °F 73% 29.83 in 10.0 mi NNE 8.1 mph - N/A   Clear
7:55 AM 73.4 °F - 62.6 °F 69% 29.82 in 10.0 mi NE 6.9 mph - N/A   Clear
8:15 AM 73.4 °F - 64.4 °F 73% 29.83 in 10.0 mi NE 5.8 mph - N/A   Clear
8:35 AM 75.2 °F - 64.4 °F 69% 29.83 in 10.0 mi ENE 4.6 mph - N/A   Clear
8:55 AM 75.2 °F - 66.2 °F 73% 29.84 in 10.0 mi NE 6.9 mph - N/A   Clear
9:15 AM 78.8 °F - 66.2 °F 65% 29.84 in 10.0 mi NE 6.9 mph - N/A   Clear
9:35 AM 78.8 °F - 68.0 °F 69% 29.84 in 10.0 mi ENE 4.6 mph - N/A   Clear
9:55 AM 80.6 °F 83.9 °F 69.8 °F 70% 29.84 in 10.0 mi ENE 4.6 mph - N/A   Partly Cloudy
10:15 AM 80.6 °F 83.9 °F 69.8 °F 70% 29.85 in 10.0 mi ENE 5.8 mph - N/A   Partly Cloudy
10:35 AM 82.4 °F 87.2 °F 71.6 °F 70% 29.84 in 10.0 mi NE 4.6 mph - N/A   Scattered Clouds
10:55 AM 82.4 °F 87.2 °F 71.6 °F 70% 29.84 in 10.0 mi ENE 5.8 mph - N/A   Partly Cloudy
11:15 AM 82.4 °F 87.2 °F 71.6 °F 70% 29.84 in 10.0 mi SE 4.6 mph - N/A   Scattered Clouds
11:35 AM 84.2 °F 89.6 °F 71.6 °F 66% 29.84 in 10.0 mi East 5.8 mph - N/A   Mostly Cloudy
11:55 AM 84.2 °F 90.9 °F 73.4 °F 70% 29.84 in 10.0 mi East 5.8 mph - N/A   Mostly Cloudy
12:15 PM 84.2 °F 90.9 °F 73.4 °F 70% 29.83 in 10.0 mi NE 3.5 mph - N/A   Mostly Cloudy
12:35 PM 84.2 °F 90.9 °F 73.4 °F 70% 29.83 in 10.0 mi East 3.5 mph - N/A   Mostly Cloudy
12:55 PM 86.0 °F 93.4 °F 73.4 °F 66% 29.82 in 10.0 mi SSE 5.8 mph - N/A   Mostly Cloudy
1:15 PM 86.0 °F 93.4 °F 73.4 °F 66% 29.82 in 10.0 mi ENE 5.8 mph - N/A   Mostly Cloudy
1:35 PM 84.2 °F 90.9 °F 73.4 °F 70% 29.81 in 10.0 mi NE 4.6 mph - N/A   Overcast
1:55 PM 84.2 °F 90.9 °F 73.4 °F 70% 29.81 in 10.0 mi Calm Calm - N/A   Overcast
2:15 PM 86.0 °F 91.8 °F 71.6 °F 62% 29.80 in 10.0 mi SSE 5.8 mph - N/A   Mostly Cloudy
2:35 PM 87.8 °F 95.6 °F 73.4 °F 62% 29.80 in 10.0 mi East 4.6 mph - N/A   Mostly Cloudy
2:55 PM 86.0 °F 93.4 °F 73.4 °F 66% 29.80 in 10.0 mi NE 6.9 mph - N/A   Overcast
3:15 PM 86.0 °F 93.4 °F 73.4 °F 66% 29.80 in 10.0 mi East 6.9 mph - N/A   Overcast
3:35 PM 87.8 °F 95.6 °F 73.4 °F 62% 29.79 in 10.0 mi SE 6.9 mph - N/A   Mostly Cloudy
3:55 PM 87.8 °F 95.6 °F 73.4 °F 62% 29.80 in 10.0 mi ESE 8.1 mph - N/A   Mostly Cloudy
4:15 PM 86.0 °F 93.4 °F 73.4 °F 66% 29.80 in 10.0 mi SE 5.8 mph - N/A   Overcast
4:35 PM 86.0 °F 93.4 °F 73.4 °F 66% 29.80 in 10.0 mi SE 4.6 mph - N/A   Overcast
4:55 PM 84.2 °F 90.9 °F 73.4 °F 70% 29.80 in 10.0 mi SE 5.8 mph - N/A   Overcast
5:15 PM 86.0 °F 93.4 °F 73.4 °F 66% 29.80 in 10.0 mi SSE 4.6 mph - N/A   Mostly Cloudy
5:35 PM 84.2 °F 90.9 °F 73.4 °F 70% 29.80 in 10.0 mi SE 4.6 mph - N/A   Overcast
5:55 PM 84.2 °F 90.9 °F 73.4 °F 70% 29.80 in 10.0 mi SE 8.1 mph - N/A   Mostly Cloudy
6:15 PM 84.2 °F 89.6 °F 71.6 °F 66% 29.81 in 10.0 mi SE 9.2 mph - N/A   Partly Cloudy
6:35 PM 84.2 °F 90.9 °F 73.4 °F 70% 29.81 in 10.0 mi SE 8.1 mph - N/A   Partly Cloudy
6:55 PM 82.4 °F 88.2 °F 73.4 °F 74% 29.81 in 10.0 mi SE 4.6 mph - N/A   Scattered Clouds
7:15 PM 82.4 °F 88.2 °F 73.4 °F 74% 29.82 in 10.0 mi SSE 4.6 mph - N/A   Mostly Cloudy
7:35 PM 82.4 °F 88.2 °F 73.4 °F 74% 29.82 in 10.0 mi SE 6.9 mph - N/A   Mostly Cloudy
7:55 PM 82.4 °F 88.2 °F 73.4 °F 74% 29.82 in 10.0 mi SE 5.8 mph - N/A   Partly Cloudy
8:15 PM 82.4 °F 88.2 °F 73.4 °F 74% 29.82 in 10.0 mi ESE 3.5 mph - N/A   Scattered Clouds
8:35 PM 82.4 °F 89.5 °F 75.2 °F 79% 29.83 in 10.0 mi SE 6.9 mph - N/A   Partly Cloudy
8:55 PM 82.4 °F 89.5 °F 75.2 °F 79% 29.84 in 10.0 mi Calm Calm - N/A   Partly Cloudy
9:15 PM 82.4 °F 89.5 °F 75.2 °F 79% 29.85 in 10.0 mi SSE 5.8 mph - N/A   Mostly Cloudy
9:35 PM 82.4 °F 88.2 °F 73.4 °F 74% 29.85 in 10.0 mi South 8.1 mph - N/A   Scattered Clouds
9:55 PM 80.6 °F 84.6 °F 71.6 °F 74% 29.85 in 10.0 mi ESE 4.6 mph - N/A   Mostly Cloudy
10:15 PM 80.6 °F 84.6 °F 71.6 °F 74% 29.85 in 10.0 mi SE 4.6 mph - N/A   Mostly Cloudy
10:35 PM 80.6 °F 84.6 °F 71.6 °F 74% 29.86 in 10.0 mi SE 4.6 mph - N/A   Scattered Clouds
10:55 PM 82.4 °F 88.2 °F 73.4 °F 74% 29.86 in 10.0 mi SE 3.5 mph - N/A   Scattered Clouds
11:15 PM 82.4 °F 89.5 °F 75.2 °F 79% 29.86 in 10.0 mi ESE 4.6 mph - N/A   Mostly Cloudy
11:35 PM 80.6 °F 86.2 °F 75.2 °F 84% 29.85 in 10.0 mi SE 6.9 mph - N/A   Mostly Cloudy
11:55 PM 80.6 °F 86.2 °F 75.2 °F 84% 29.85 in 10.0 mi ESE 4.6 mph - N/A   Mostly Cloudy